EHI
1 0 0 0 0 0 0 0 0 0 0 0 0 0 0 0 0 0 0 1 2 2 1 2 1 2 3 4 4 1 0 0 0 0 0 0 0 0 0 0 0 0 0
2 1 0 0 0 0 0 0 0 0 0 0 0 0 0 0 0 0 0 0 1 1 2 2 1 1 3 4 3 1 0 0 0 0 0 0 0 0 0 0 0 0 0
2 1 0 0 0 0 0 0 0 0 0 0 0 0 0 0 0 0 0 0 0 2 3 3 1 1 3 4 3 1 0 1 0 0 0 0 0 0 0 0 0 0 0
1 0 0 0 0 0 0 0 0 0 0 0 0 0 0 0 0 0 0 0 0 1 2 2 1 1 3 3 2 1 0 0 0 0 0 0 0 0 0 0 0 0 0
0 0 0 0 0 0 0 0 0 0 0 0 0 0 0 0 0 0 0 0 0 0 1 1 1 2 3 3 2 1 0 0 0 0 0 0 0 0 0 0 0 0 0
0 0 0 0 0 0 0 0 0 0 0 0 0 0 0 0 0 0 0 0 0 0 0 0 1 2 2 1 1 1 1 2 1 0 0 0 0 0 0 0 0 0 0
0 0 0 0 0 0 0 0 0 0 0 0 0 0 0 0 0 0 0 0 0 0 0 0 0 1 1 0 0 1 3 3 1 0 0 0 0 0 0 0 0 0 0
0 0 0 0 0 0 0 0 0 0 0 0 0 0 0 0 0 0 0 0 0 0 0 0 0 0 0 0 0 1 3 2 1 0 0 0 0 0 0 0 0 0 0
0 0 0 0 0 0 0 0 0 0 0 0 0 0 0 0 0 0 0 0 0 0 0 0 0 0 0 0 0 0 1 1 0 0 0 0 0 0 0 0 0 0 0
0 0 0 0 0 0 0 0 0 0 1 1 1 0 0 0 0 0 0 0 0 0 0 0 0 0 0 0 0 0 0 0 0 0 0 0 0 0 0 0 0 0 0
0 0 0 0 0 0 0 0 0 0 1 2 2 1 0 0 0 0 0 0 0 0 0 0 0 0 0 0 0 0 0 0 0 0 0 0 0 0 0 0 0 0 0
0 0 0 0 0 0 0 0 0 0 1 1 1 1 0 0 0 0 0 0 0 0 0 0 0 0 0 0 0 0 0 0 0 0 0 0 0 0 0 0 0 0 0
0 0 0 0 0 0 0 0 0 0 0 0 0 0 0 0 0 0 0 0 0 0 0 0 0 0 0 0 0 0 0 0 0 0 0 0 0 0 0 0 0 0 0
0 0 0 0 0 0 0 0 0 0 0 0 0 0 0 0 0 0 0 0 0 0 0 0 0 0 0 0 0 0 0 0 0 0 0 0 0 0 0 0 0 0 0
0 0 0 0 0 0 0 0 0 0 0 0 0 0 0 0 0 0 0 0 0 0 0 0 0 0 0 0 0 0 0 0 0 0 0 0 0 0 0 0 0 0 0
0 0 0 0 0 0 0 0 0 0 0 0 0 0 0 0 0 0 0 0 0 0 0 0 0 0 0 0 0 0 0 0 0 0 0 0 0 0 0 0 0 0 0
0 0 0 0 0 0 0 0 0 0 0 0 0 0 0 0 0 0 0 0 0 0 0 0 0 0 0 0 0 0 0 0 0 0 0 0 0 0 0 0 0 0 0
0 0 0 0 0 0 0 0 0 0 0 0 0 0 0 0 0 0 0 0 0 0 0 0 0 0 0 0 0 0 0 0 0 0 0 0 0 0 0 0 0 0 0
0 0 0 0 0 0 0 0 0 0 0 0 0 0 0 0 0 0 0 0 0 0 0 0 0 0 0 0 0 0 0 0 0 0 0 0 0 0 0 0 0 0 0
0 0 0 0 0 0 0 0 0 0 0 0 0 0 0 0 0 0 0 0 0 0 0 0 0 0 0 0 0 0 0 0 0 0 0 0 0 0 0 0 0 0 0
0 0 0 0 0 0 0 0 0 0 0 0 0 0 0 0 0 0 0 0 0 0 0 0 0 0 0 0 0 0 0 0 0 0 0 0 0 0 0 0 0 0 0
0 0 0 0 0 0 0 0 0 0 0 0 0 0 0 0 0 0 0 0 0 0 0 0 0 0 0 0 0 0 0 0 0 0 0 0 0 0 0 0 0 0 0
0 0 0 0 0 0 0 0 0 0 0 0 0 0 0 0 0 0 0 0 0 0 0 0 0 0 0 0 0 0 0 0 0 0 0 0 0 0 0 0 0 0 0
0 0 0 0 0 0 0 0 0 0 0 0 0 0 0 0 0 0 0 0 0 0 0 0 0 0 0 0 0 0 0 0 0 0 0 0 0 0 0 0 0 0 0
0 0 0 0 0 0 0 0 0 0 0 0 0 0 0 0 0 0 0 0 0 0 0 0 0 0 0 0 0 0 0 0 0 0 0 0 0 0 0 0 0 0 0
0 0 0 0 0 0 0 0 0 0 0 0 0 0 0 0 0 0 0 0 0 0 0 0 0 0 0 0 0 0 0 0 0 0 0 0 0 0 0 0 0 0 0
Wind_Speed
0 0 0 1 1 0 0 0 0 0 1 1 1 2 2 2 2 2 2 5 5 6 7 8 9 10 11 12 12 13 13 13 12 11 10 9 9 9 9 8 8 7 7
0 0 0 1 1 1 0 0 0 0 1 1 1 1 1 2 2 2 2 2 3 4 6 7 9 10 11 12 12 12 12 13 12 11 11 10 9 9 9 9 8 8 8
0 0 0 1 1 1 0 0 0 0 0 0 1 1 1 1 1 2 2 1 2 3 4 6 7 7 9 10 11 11 12 12 12 12 11 11 10 9 9 9 9 8 8
2 1 1 1 1 1 1 0 0 0 0 0 0 1 1 1 1 1 1 1 1 1 3 4 4 6 7 8 9 10 11 11 11 11 11 11 11 10 10 10 9 9 9
3 2 1 2 2 1 1 0 0 0 0 0 0 0 1 1 1 1 1 1 1 1 1 1 2 4 5 6 7 9 10 10 10 10 11 11 11 11 10 10 10 10 10
4 2 2 3 2 1 1 1 0 0 0 0 1 1 2 2 1 1 1 1 1 1 1 0 1 2 3 3 4 6 7 8 10 10 10 11 11 11 11 11 11 11 11
4 3 3 3 2 2 1 1 0 1 0 1 1 1 1 2 3 2 2 2 2 1 1 1 1 0 1 2 2 4 7 8 9 9 10 10 11 11 11 11 11 11 11
4 3 4 3 3 2 2 2 1 0 1 1 1 1 0 1 2 3 3 2 3 2 2 3 2 2 2 1 1 3 5 7 9 10 11 11 12 11 12 12 11 12 12
6 5 5 3 3 3 2 2 1 1 1 1 1 1 2 2 0 2 3 4 4 3 3 4 5 4 4 3 2 4 7 9 9 10 11 12 12 12 13 13 13 13 13
6 6 5 5 4 3 2 2 2 1 1 1 1 1 1 1 2 1 2 3 5 5 5 5 5 5 5 4 5 8 10 10 11 12 12 12 12 12 12 12 12 12 12
6 7 6 5 5 3 3 3 3 2 1 1 1 0 1 1 1 2 2 2 3 5 5 5 5 5 5 5 4 9 11 11 11 12 12 12 12 12 11 11 11 11 11
4 7 6 5 5 4 4 3 3 2 2 1 0 0 1 1 1 2 3 2 3 3 5 5 5 5 5 5 7 11 11 11 11 11 11 11 11 11 11 11 10 10 10
4 6 6 5 5 5 4 4 3 3 2 1 1 0 0 0 1 2 4 3 3 2 3 4 5 5 5 5 6 12 12 13 13 12 12 11 11 12 11 11 11 10 10
3 4 5 6 6 6 5 4 3 3 2 2 2 1 0 0 1 2 3 5 4 3 3 4 3 5 4 5 8 11 9 14 13 13 12 12 11 11 11 10 10 9 9
3 5 6 6 6 6 6 5 4 4 3 3 3 2 2 1 1 2 2 3 4 4 3 2 2 3 3 4 7 6 6 11 11 11 10 10 9 9 8 8 8 7 7
5 6 6 6 6 7 7 6 5 4 5 4 3 4 4 2 2 2 2 2 2 4 4 2 2 2 3 4 7 6 6 9 8 8 7 7 6 6 7 7 6 6 6
6 6 6 6 6 7 6 6 6 6 7 6 5 5 5 4 3 3 3 4 4 4 7 4 3 3 4 4 4 4 4 4 4 6 5 5 4 4 5 5 4 4 4
6 6 6 6 7 7 6 7 7 7 7 7 7 7 6 5 6 5 4 5 5 5 8 8 4 3 4 3 3 4 3 3 2 4 4 3 3 3 3 3 3 3 3
6 7 7 7 7 6 6 6 7 7 7 7 7 7 6 6 7 5 6 6 6 6 6 7 5 3 3 3 3 3 3 2 1 2 2 2 2 2 3 3 4 4 4
6 7 6 6 6 6 6 6 7 7 8 7 7 7 7 7 6 7 7 7 7 8 7 7 6 3 3 2 2 2 2 2 1 1 1 1 1 1 3 4 5 6 6
7 6 7 7 7 6 6 6 6 7 7 8 8 7 7 9 9 7 6 6 7 6 6 6 5 3 2 2 2 1 1 1 1 1 1 0 0 1 2 3 5 7 7
6 7 7 7 8 6 9 10 7 7 7 8 7 7 7 9 10 11 11 9 7 7 6 5 4 4 2 2 1 1 1 1 1 1 1 1 0 2 2 3 5 7 8
6 7 7 7 7 8 10 11 11 7 8 7 7 6 6 7 8 7 10 11 10 9 6 4 5 3 2 2 2 2 1 1 0 1 1 1 1 2 2 3 5 6 7
5 5 6 6 6 8 9 10 9 8 8 8 7 6 6 7 6 6 8 8 7 7 5 4 3 2 2 2 2 1 1 1 0 0 1 1 1 2 2 3 4 5 6
4 4 4 6 6 7 9 8 7 5 6 7 7 7 7 7 8 8 8 7 7 5 6 7 5 4 3 3 4 3 2 1 1 1 0 1 1 2 2 2 3 5 6
3 3 5 5 5 5 8 7 6 4 5 5 5 6 8 8 8 7 6 6 5 3 4 4 5 5 4 3 2 2 2 1 0 1 1 1 1 2 2 2 3 3 4
Wind_Direction
187 273 301 290 279 278 241 221 212 220 249 250 236 227 232 240 244 244 264 257 234 218 216 211 214 220 220 214 208 206 201 198 196 193 190 185 180 177 169 164 160 155 150
189 226 270 286 290 290 256 200 233 243 266 268 278 272 259 247 249 247 248 275 263 234 218 211 218 225 227 222 214 211 208 202 196 192 187 181 177 172 167 162 155 150 144
56 198 290 297 303 319 338 92 145 144 214 232 284 301 287 266 263 265 258 257 262 246 222 212 215 218 223 223 218 213 210 203 197 192 186 180 174 168 163 158 151 145 141
26 33 15 339 343 5 37 121 159 146 225 211 251 297 312 317 312 300 296 288 271 253 234 224 226 232 230 226 221 214 209 202 195 189 183 176 171 167 161 157 152 147 140
26 37 31 7 11 21 26 338 77 175 190 189 163 16 359 340 329 330 339 333 329 297 261 236 225 241 238 232 220 211 202 195 187 184 179 174 168 160 155 151 146 139 133
26 34 34 16 20 25 14 33 69 99 125 140 85 45 22 0 6 2 349 352 345 323 298 212 222 251 244 242 221 206 188 175 171 172 173 170 163 156 151 143 137 133 127
23 31 25 20 21 20 1 13 83 105 123 122 110 75 47 40 31 17 13 19 11 352 6 32 27 360 270 238 204 193 179 162 150 152 156 153 147 142 140 136 134 131 125
23 32 30 22 20 24 20 16 30 126 197 179 157 160 232 354 26 27 26 25 15 23 37 39 39 41 30 24 74 138 135 135 137 137 134 130 126 126 127 126 129 125 118
27 28 25 22 18 21 9 349 337 250 232 233 198 185 191 213 113 34 34 33 33 36 38 41 45 45 50 51 66 98 114 114 120 122 122 122 123 123 123 122 120 118 117
25 27 25 21 19 16 5 344 338 307 260 247 236 208 184 162 172 130 51 39 42 40 39 41 44 47 54 62 70 84 93 101 108 110 113 117 121 124 125 123 121 122 121
22 22 23 21 15 10 7 0 352 348 322 270 250 172 139 124 159 153 134 79 53 38 40 41 44 47 54 60 72 85 87 90 99 106 110 113 117 121 122 122 123 124 122
17 17 19 20 17 11 6 1 360 4 360 338 320 286 198 177 170 144 136 120 86 49 41 41 42 41 50 56 74 87 89 89 92 98 105 110 113 116 119 119 119 120 118
15 8 14 17 15 7 6 7 15 15 8 6 4 315 281 249 150 137 129 123 104 74 51 45 38 39 48 54 68 83 86 87 88 89 92 97 102 104 104 105 106 107 108
11 7 18 23 19 14 13 15 23 17 18 19 23 34 63 45 119 136 138 137 122 90 66 64 43 43 48 55 67 70 82 86 85 83 85 87 91 95 99 101 103 105 106
19 24 27 27 23 19 16 18 27 23 27 34 33 41 53 49 76 101 118 136 138 137 111 79 71 48 58 64 68 68 74 83 85 84 83 84 90 96 99 100 102 103 105
27 29 28 28 27 23 20 27 28 26 39 37 41 54 54 50 62 76 101 97 107 126 119 95 88 85 79 84 77 71 75 80 82 86 88 92 97 104 107 109 113 116 117
30 31 26 29 29 26 23 31 34 35 41 39 39 56 56 54 63 65 80 88 89 103 113 100 77 82 82 85 75 69 70 65 76 88 97 104 106 111 119 124 128 130 133
35 32 31 35 32 29 28 34 37 38 41 41 40 49 51 61 65 65 78 88 92 95 117 118 97 79 75 79 74 73 69 71 75 83 91 105 119 135 146 154 162 167 174
37 32 33 34 30 28 34 37 42 45 45 46 46 49 49 62 66 69 79 86 91 94 97 112 104 82 77 78 76 71 65 48 67 92 98 118 146 171 189 198 204 210 215
40 33 31 31 30 31 34 42 47 47 46 46 48 49 51 60 72 79 84 89 97 98 100 104 103 92 84 76 83 80 67 39 26 43 51 90 155 218 226 226 228 231 234
38 32 34 31 30 31 30 45 50 50 45 45 45 47 55 66 72 78 94 99 104 104 105 106 106 104 97 99 92 83 88 32 8 13 340 349 296 261 254 247 244 243 245
33 35 35 34 36 32 35 49 55 54 48 47 43 41 53 58 67 73 85 90 102 114 118 116 118 122 123 119 114 112 108 74 35 30 324 303 268 261 257 251 251 253 250
36 36 32 35 36 29 43 52 55 59 52 45 41 41 52 52 62 74 75 73 70 77 97 125 126 131 139 155 146 130 131 101 17 354 304 300 295 276 272 265 261 258 255
35 33 30 29 35 29 42 56 58 57 53 44 39 41 53 47 55 72 78 72 65 59 68 86 110 126 145 156 157 139 137 119 40 12 246 295 315 293 300 290 276 268 265
41 35 27 29 35 22 30 50 59 55 51 40 36 39 47 55 53 71 78 76 64 49 59 74 85 88 105 137 149 133 120 87 30 352 247 259 311 309 297 290 287 281 274
53 48 41 30 30 23 23 44 54 60 52 37 31 31 40 52 57 67 80 85 76 48 47 53 51 46 53 65 103 147 155 142 162 290 224 230 298 320 312 298 297 297 288